Location: *
(23.5860°S, 65.4036°W)
Time: 23:20:15
(UTC+00:00)

CZ-4 R/B - Pass Details

Date: 25 August 2019
Orbit: 532 x 598 km, 97.8° (Epoch: 21 September)

Event Time Altitude Azimuth Distance (km) Brightness Sun altitude
Rises 22:27:31 0° 147° (SSE) 2,828 4.5 -5.1°
Reaches altitude 10° 22:30:16 10° 129° (SE) 1,907 3.5 -5.7°
Maximum altitude 22:33:11 19° 83° (E) 1,414 2.8 -6.4°
Drops below altitude 10° 22:36:02 10° 38° (NE) 1,862 3.7 -7.0°
Sets 22:38:39 0° 20° (NNE) 2,735 4.8 -7.6°
